Meteo Giornale » Osservazioni meteo Stati Uniti (USA) » Greenville
ore: 17:56 - Osservazioni Meteo Greenville
Lat. 45° 28' N Lon. 69° 35' W Alt. 427 metri s.l.m.
18 °C
Sereno
Temp. 24 Ore
12 °C
21 °C
Nord
0 Km/h
Dew point 10 °C
Umidità 59 %
Visibilità 22 Km
Il sole sorge alle ore 06:01
Il sole tramonta alle ore 19:14
| Data e Ora | Cielo e Fenomeni | T °C | DP °C | Um. % | Pres. hPa | Vis. km | Vento km/h | |
|---|---|---|---|---|---|---|---|---|
| Oggi h: 17:56 | Sereno | 18 | 10 | 59 | 1020 | 22 | N 0 | |
| Oggi h: 16:56 | Sereno | 19 | 10 | 55 | 1020 | 22 | N 5.5 | |
| Oggi h: 15:56 | Sereno | 21 | 10 | 49 | 1021 | 22 | S/SE 11.1 | |
| Oggi h: 14:56 | Sereno | 19 | 9 | 52 | 1021 | 22 | N 9.3 | |
| Oggi h: 13:56 | Sereno | 20 | 9 | 49 | 1022 | 22 | SE 13 | |
| Oggi h: 12:56 | Sereno | 19 | 11 | 59 | 1022 | 22 | SE 13 | |
| Oggi h: 11:56 | Sereno | 19 | 11 | 59 | 1022 | 22 | SE 14.8 | |
| Oggi h: 10:56 | Sereno | 18 | 11 | 63 | 1023 | 21 | SE 18.5 | |
| Oggi h: 09:56 | Sereno | 17 | 12 | 72 | 1023 | 21 | N 7.4 | |
| Oggi h: 08:56 | Sereno | 16 | 11 | 72 | 1023 | 21 | SE 14.8 | |
| Oggi h: 07:56 | Sereno | 14 | 13 | 93 | 1023 | 21 | SE 14.8 | |
| Oggi h: 06:56 | Sereno | 13 | 12 | 93 | 1022 | 21 | N 5.5 | |
| Oggi h: 05:56 | Sereno | 12 | 12 | 100 | 1022 | 21 | N 5.5 | |
| Oggi h: 04:56 | Sereno | 12 | 11 | 93 | 1022 | 21 | SE 7.4 | |
| Oggi h: 03:56 | Sereno | 12 | 12 | 100 | 1022 | 21 | SE 9.3 | |
| Oggi h: 02:56 | Sereno | 12 | 11 | 93 | 1021 | 21 | SE 9.3 | |
| Oggi h: 01:56 | Sereno | 13 | 11 | 87 | 1021 | 21 | N 5.5 | |
| Oggi h: 00:56 | Sereno | 13 | 10 | 81 | 1021 | 20 | SE 7.4 | |
| Ieri h: 23:56 | Sereno | 14 | 9 | 71 | 1020 | 20 | SE 9.3 | |
| Ieri h: 22:56 | Sereno | 15 | 9 | 67 | 1020 | 20 | SE 9.3 | |
| Ieri h: 21:56 | Sereno | 15 | 8 | 62 | 1020 | 20 | SE 9.3 | |
| Ieri h: 20:56 | Sereno | 16 | 8 | 58 | 1020 | 20 | E 11.1 | |
| Ieri h: 19:56 | Sereno | 16 | 8 | 58 | 1019 | 12 | SE 7.4 | |
| Ieri h: 18:56 | Sereno | 17 | 9 | 59 | 1019 | 12 | N 5.5 | |



